This is the latest recevied weather packets stored in our database for station/object iw0uwf-4. If no packets are shown the sender has not sent any weather packets the latest 1 day(s).
| Time | Temp. | Humidity | Pressure | Rain* | Wind** | Luminosity | Snow |
|---|---|---|---|---|---|---|---|
| 1778085244 | 18.33° C | 62% | 1004 hPa | 0 mm | - | 0 W/m² | - |
| 1778085184 | 18.33° C | 62% | 1003.9 hPa | 0 mm | - | 0 W/m² | - |
| 1778084824 | 18.89° C | 63% | 1004 hPa | 0 mm | - | 0 W/m² | - |
| 1778084764 | 18.89° C | 63% | 1004 hPa | 0 mm | - | 0 W/m² | - |
| 1778084704 | 18.89° C | 63% | 1004 hPa | 0 mm | - | 0 W/m² | - |
| 1778084104 | 18.89° C | 63% | 1004 hPa | 0 mm | - | 0 W/m² | - |
| 1778084044 | 18.89° C | 63% | 1004 hPa | 0 mm | - | 0 W/m² | - |
| 1778083984 | 18.89° C | 62% | 1004.1 hPa | 0 mm | - | 0 W/m² | - |
| 1778083924 | 18.33° C | 62% | 1003.9 hPa | 0 mm | - | 0 W/m² | - |
| 1778083804 | 18.33° C | 62% | 1004 hPa | 0 mm | - | 0 W/m² | - |
| 1778082964 | 18.89° C | 60% | 1004 hPa | 0 mm | - | 0 W/m² | - |
| 1778082844 | 19.44° C | 60% | 1004 hPa | 0 mm | - | 0 W/m² | - |
| 1778082724 | 19.44° C | 60% | 1004 hPa | 0 mm | - | 0 W/m² | - |
| 1778082604 | 20° C | 60% | 1004.1 hPa | 0 mm | - | 0 W/m² | - |
| 1778082064 | 20° C | 61% | 1004.2 hPa | 0 mm | - | 0 W/m² | - |
| 1778081884 | 20.56° C | 62% | 1004 hPa | 0 mm | - | 0 W/m² | - |
| 1778081765 | 20.56° C | 63% | 1004 hPa | 0 mm | - | 0 W/m² | - |
| 1778081704 | 20.56° C | 63% | 1003.9 hPa | 0 mm | - | 0 W/m² | - |
| 1778081044 | 19.44° C | 67% | 1004.2 hPa | 0 mm | - | 0 W/m² | - |
| 1778080624 | 18.89° C | 68% | 1004.2 hPa | 0 mm | - | 0 W/m² | - |
| 1778080024 | 18.33° C | 69% | 1004.1 hPa | 0 mm | - | 0 W/m² | - |
| 1778079964 | 17.78° C | 69% | 1004.3 hPa | 0 mm | - | 0 W/m² | - |
| 1778079904 | 17.78° C | 69% | 1004.2 hPa | 0 mm | - | 0 W/m² | - |
| 1778079784 | 17.78° C | 69% | 1004.3 hPa | 0 mm | - | 0 W/m² | - |
| 1778079664 | 17.78° C | 69% | 1004.4 hPa | 0 mm | - | 0 W/m² | - |
* Rain latest hour (hover to see other rain measurements)
** Current wind speed in m/s (hover to see current wind gust speed)